User: anonymous   Login
Location: Prague
(50.0830°N, 14.4670°E)
Time: 06:10:28
(UTC+01:00)
Language:

UKube-1 - Orbit

View from above orbital plane
View from above orbital plane
View from above satellite
View from above satellite

Ground track
Ground track

The orbit data is extracted from the following two-line orbital elements,

1 40074U 14037F   20330.81749974  .00000586  00000-0  76886-4 0  9995
2 40074  98.4459 168.7428 0004203 336.2092  23.8936 14.84377198345696
Epoch (UTC): 25 November 2020 19:37:11
Eccentricity: 0.0004203
inclination: 98.4459°
perigee height: 612 km
apogee height: 618 km
right ascension of ascending node: 168.7428°
argument of perigee: 336.2092°
revolutions per day: 14.84377198
mean anomaly at epoch: 23.8936°
orbit number at epoch: 34569

The dashed part of the orbit path shows where the satellite is in the earth's shadow,  

DLR